,,,PA_Meas_PMT16A,,PR_Meas_QMR101_102,,RH_Meas_QMH101,,SR_Meas_QMS101,,TA_Meas_QMH101,,GenWind,,GenWind,
date,time,status,PA,status,PR,status,RH,status,SR,status,TA,status,DirAvg,status,SpdAvg,
2011-11-11, 00:00:04,VALID,1004.86,VALID,0,VALID,93.8352,VALID,0,VALID,24.4396,VALID,349,VALID,0.570313,
2011-11-11, 00:01:04,VALID,1004.87,VALID,0,VALID,93.8505,VALID,0.0815089,VALID,24.4396,VALID,349,VALID,0.442969,
2011-11-11, 00:02:04,VALID,1004.84,VALID,0,VALID,93.8581,VALID,0.0815089,VALID,24.4609,VALID,349,VALID,0.521094,
2011-11-11, 00:03:04,VALID,1004.84,VALID,0,VALID,93.7742,VALID,0,VALID,24.4609,VALID,349,VALID,0.650781,
2011-11-11, 00:04:04,VALID,1004.83,VALID,0,VALID,93.6674,VALID,0,VALID,24.4396,VALID,350,VALID,0.778906,
2011-11-11, 00:05:04,VALID,1004.82,VALID,0,VALID,93.6216,VALID,0.0815089,VALID,24.4414,VALID,350,VALID,0.654688,
2011-11-11, 00:06:04,VALID,1004.83,VALID,0,VALID,93.6903,VALID,0.0815089,VALID,24.4414,VALID,350,VALID,0.610937,
2011-11-11, 00:07:04,VALID,1004.79,VALID,0,VALID,93.6216,VALID,0,VALID,24.422,VALID,350,VALID,0.703516,
2011-11-11, 00:08:04,VALID,1004.82,VALID,0,VALID,93.6064,VALID,0,VALID,24.4006,VALID,350,VALID,0.722656,
2011-11-11, 00:09:04,VALID,1004.78,VALID,0,VALID,93.6445,VALID,0.0815089,VALID,24.4025,VALID,350,VALID,0.700391,
2011-11-11, 00:10:04,VALID,1004.78,VALID,0,VALID,93.6979,VALID,0.0815089,VALID,24.4025,VALID,350,VALID,0.808203,
2011-11-11, 00:11:04,VALID,1004.72,VALID,0,VALID,93.7589,VALID,0.0815089,VALID,24.4025,VALID,350,VALID,0.638281,
2011-11-11, 00:12:04,VALID,1004.7,VALID,0,VALID,93.7132,VALID,0,VALID,24.4025,VALID,350,VALID,0.833984,
2011-11-11, 00:13:04,VALID,1004.7,VALID,0,VALID,93.7437,VALID,0.0815089,VALID,24.3617,VALID,349,VALID,0.865234,
2011-11-11, 00:14:04,VALID,1004.68,VALID,0,VALID,93.7666,VALID,0,VALID,24.383,VALID,349,VALID,0.682031,
2011-11-11, 00:15:04,VALID,1004.69,VALID,0,VALID,93.8505,VALID,0,VALID,24.383,VALID,349,VALID,0.614062,
2011-11-11, 00:16:04,VALID,1004.66,VALID,0,VALID,93.8276,VALID,0,VALID,24.3636,VALID,349,VALID,0.752734,
2011-11-11, 00:17:04,VALID,1004.65,VALID,0,VALID,93.9191,VALID,0,VALID,24.383,VALID,349,VALID,0.639063,
2011-11-11, 00:18:04,VALID,1004.64,VALID,0,VALID,94.0259,VALID,0,VALID,24.383,VALID,344,VALID,0.544922,
2011-11-11, 00:19:04,VALID,1004.61,VALID,0,VALID,94.1328,VALID,0.0815089,VALID,24.422,VALID,345,VALID,0.529297,
2011-11-11, 00:20:04,VALID,1004.63,VALID,0,VALID,93.9802,VALID,0,VALID,24.4433,VALID,344,VALID,0.505469,
2011-11-11, 00:21:04,VALID,1004.58,VALID,0,VALID,93.9573,VALID,0,VALID,24.4006,VALID,344,VALID,0.602734,
2011-11-11, 00:22:04,VALID,1004.6,VALID,0,VALID,93.8734,VALID,0,VALID,24.4414,VALID,344,VALID,0.611328,
2011-11-11, 00:23:04,VALID,1004.57,VALID,0,VALID,93.8047,VALID,0,VALID,24.4609,VALID,344,VALID,0.649219,
2011-11-11, 00:24:04,VALID,1004.55,VALID,0,VALID,93.7513,VALID,0,VALID,24.4201,VALID,344,VALID,0.728125,
2011-11-11, 00:25:04,VALID,1004.53,VALID,0,VALID,93.7132,VALID,0,VALID,24.4201,VALID,344,VALID,0.622266,
2011-11-11, 00:26:04,VALID,1004.52,VALID,0,VALID,93.6598,VALID,0,VALID,24.4414,VALID,344,VALID,0.632031,
2011-11-11, 00:27:04,VALID,1004.52,VALID,0,VALID,93.7132,VALID,0,VALID,24.4006,VALID,344,VALID,0.640234,
2011-11-11, 00:28:04,VALID,1004.49,VALID,0,VALID,93.7589,VALID,0,VALID,24.4006,VALID,344,VALID,0.616406,
2011-11-11, 00:29:04,VALID,1004.46,VALID,0,VALID,93.8505,VALID,0,VALID,24.422,VALID,344,VALID,0.578906,
2011-11-11, 00:30:04,VALID,1004.46,VALID,0,VALID,93.9878,VALID,0,VALID,24.422,VALID,344,VALID,0.677344,
2011-11-11, 00:31:04,VALID,1004.46,VALID,0,VALID,94.1022,VALID,0,VALID,24.4414,VALID,344,VALID,0.621875,
2011-11-11, 00:32:04,VALID,1004.46,VALID,0,VALID,94.0031,VALID,0,VALID,24.4628,VALID,344,VALID,0.505859,
2011-11-11, 00:33:04,VALID,1004.42,VALID,0,VALID,94.2853,VALID,0,VALID,24.4804,VALID,344,VALID,0.481641,
2011-11-11, 00:34:04,VALID,1004.45,VALID,0,VALID,94.0565,VALID,0,VALID,24.4609,VALID,344,VALID,0.621875,
2011-11-11, 00:35:04,VALID,1004.44,VALID,0,VALID,94.0641,VALID,0.0815089,VALID,24.4804,VALID,344,VALID,0.481641,
2011-11-11, 00:36:04,VALID,1004.46,VALID,0,VALID,94.1938,VALID,0,VALID,24.459,VALID,344,VALID,0.599219,
2011-11-11, 00:37:04,VALID,1004.43,VALID,0,VALID,94.209,VALID,0.0815089,VALID,24.459,VALID,344,VALID,0.632031,
2011-11-11, 00:38:04,VALID,1004.46,VALID,0,VALID,94.1785,VALID,0,VALID,24.4609,VALID,344,VALID,0.569141,
2011-11-11, 00:39:04,VALID,1004.44,VALID,0,VALID,94.2396,VALID,0,VALID,24.4804,VALID,344,VALID,0.53125,
2011-11-11, 00:40:04,VALID,1004.44,VALID,0,VALID,94.1556,VALID,0,VALID,24.4804,VALID,344,VALID,0.521094,
2011-11-11, 00:41:04,VALID,1004.43,VALID,0,VALID,94.1251,VALID,0.0815089,VALID,24.4396,VALID,344,VALID,0.360156,
2011-11-11, 00:42:04,VALID,1004.4,VALID,0,VALID,94.1556,VALID,0,VALID,24.4609,VALID,344,VALID,0.677344,
2011-11-11, 00:43:04,VALID,1004.39,VALID,0,VALID,94.1862,VALID,0,VALID,24.4414,VALID,344,VALID,0.556641,
2011-11-11, 00:44:04,VALID,1004.36,VALID,0,VALID,94.3464,VALID,0,VALID,24.4609,VALID,348,VALID,0.641016,
2011-11-11, 00:45:04,VALID,1004.35,VALID,0,VALID,94.4074,VALID,0,VALID,24.4609,VALID,349,VALID,0.556641,
2011-11-11, 00:46:04,VALID,1004.35,VALID,0,VALID,94.2701,VALID,0,VALID,24.4201,VALID,349,VALID,0.682813,
2011-11-11, 00:47:04,VALID,1004.31,VALID,0,VALID,94.293,VALID,0,VALID,24.4414,VALID,349,VALID,0.460938,
2011-11-11, 00:48:04,VALID,1004.33,VALID,0,VALID,94.4761,VALID,0,VALID,24.4201,VALID,349,VALID,0.550781,
2011-11-11, 00:49:04,VALID,1004.32,VALID,0,VALID,94.5981,VALID,0,VALID,24.4609,VALID,348,VALID,0.659766,
2011-11-11, 00:50:04,VALID,1004.31,VALID,0,VALID,94.8117,VALID,0,VALID,24.4998,VALID,344,VALID,0.632422,
2011-11-11, 00:51:04,VALID,1004.27,VALID,0,VALID,94.6134,VALID,0.0815089,VALID,24.5193,VALID,344,VALID,0.732422,
2011-11-11, 00:52:04,VALID,1004.3,VALID,0,VALID,94.5981,VALID,0,VALID,24.5406,VALID,344,VALID,0.775,
2011-11-11, 00:53:04,VALID,1004.28,VALID,0,VALID,94.5142,VALID,0,VALID,24.5193,VALID,342,VALID,0.553516,
2011-11-11, 00:54:04,VALID,1004.28,VALID,0,VALID,94.4837,VALID,0,VALID,24.5582,VALID,342,VALID,0.560156,
2011-11-11, 00:55:04,VALID,1004.28,VALID,0,VALID,94.354,VALID,0,VALID,24.5406,VALID,342,VALID,0.4625,
2011-11-11, 00:56:04,VALID,1004.24,VALID,0,VALID,94.2624,VALID,0,VALID,24.5388,VALID,342,VALID,0.525391,
2011-11-11, 00:57:04,VALID,1004.25,VALID,0,VALID,94.3845,VALID,0,VALID,24.5582,VALID,342,VALID,0.419922,
2011-11-11, 00:58:04,VALID,1004.22,VALID,0,VALID,94.1556,VALID,0,VALID,24.5406,VALID,342,VALID,0.4625,
2011-11-11, 00:59:04,VALID,1004.19,VALID,0,VALID,94.1862,VALID,0,VALID,24.5193,VALID,342,VALID,0.540234,
2011-11-11, 01:00:04,VALID,1004.18,VALID,0,VALID,94.2396,VALID,0,VALID,24.5193,VALID,342,VALID,0.596484,
2011-11-11, 01:01:04,VALID,1004.14,VALID,0,VALID,94.2548,VALID,0,VALID,24.5388,VALID,342,VALID,0.588281,
2011-11-11, 01:02:04,VALID,1004.14,VALID,0,VALID,94.2701,VALID,0,VALID,24.5193,VALID,343,VALID,0.810938,
2011-11-11, 01:03:04,VALID,1004.14,VALID,0,VALID,94.4074,VALID,0,VALID,24.5388,VALID,341,VALID,0.65,
2011-11-11, 01:04:04,VALID,1004.15,VALID,0,VALID,94.2777,VALID,0,VALID,24.498,VALID,341,VALID,0.562891,
2011-11-11, 01:05:04,VALID,1004.16,VALID,0,VALID,94.293,VALID,0,VALID,24.5212,VALID,342,VALID,0.658594,
2011-11-11, 01:06:04,VALID,1004.11,VALID,0,VALID,94.2624,VALID,0.0815089,VALID,24.4785,VALID,342,VALID,0.470703,
2011-11-11, 01:07:04,VALID,1004.06,VALID,0,VALID,94.3311,VALID,0,VALID,24.5212,VALID,342,VALID,0.555469,
2011-11-11, 01:08:04,VALID,1004.06,VALID,0,VALID,94.5523,VALID,0,VALID,24.4998,VALID,342,VALID,0.391016,
2011-11-11, 01:09:04,VALID,1004.08,VALID,0,VALID,94.3311,VALID,0,VALID,24.4804,VALID,342,VALID,0.588281,
2011-11-11, 01:10:04,VALID,1004.05,VALID,0,VALID,94.4608,VALID,0,VALID,24.4998,VALID,342,VALID,0.4125,
2011-11-11, 01:11:04,VALID,1004.02,VALID,0,VALID,94.354,VALID,0,VALID,24.4785,VALID,342,VALID,0.465234,
2011-11-11, 01:12:04,VALID,1004.01,VALID,0,VALID,94.3769,VALID,0,VALID,24.4998,VALID,342,VALID,0.331641,
2011-11-11, 01:13:04,VALID,1003.99,VALID,0,VALID,94.3464,VALID,0,VALID,24.4804,VALID,342,VALID,0.265625,
2011-11-11, 01:14:04,VALID,1003.96,VALID,0,VALID,94.3845,VALID,0.0815089,VALID,24.4804,VALID,342,VALID,0.253125,
2011-11-11, 01:15:04,VALID,1003.99,VALID,0,VALID,94.3387,VALID,0,VALID,24.4609,VALID,342,VALID,0.457812,
2011-11-11, 01:16:04,VALID,1003.97,VALID,0,VALID,94.2396,VALID,0,VALID,24.4396,VALID,342,VALID,0.396875,
2011-11-11, 01:17:04,VALID,1003.98,VALID,0,VALID,94.1862,VALID,0,VALID,24.4414,VALID,342,VALID,0.287109,
2011-11-11, 01:18:04,VALID,1003.96,VALID,0,VALID,94.293,VALID,0,VALID,24.4414,VALID,342,VALID,0.355469,
2011-11-11, 01:19:04,VALID,1003.96,VALID,0,VALID,94.2243,VALID,0,VALID,24.4414,VALID,342,VALID,0.296094,
2011-11-11, 01:20:04,VALID,1003.95,VALID,0,VALID,94.2167,VALID,0,VALID,24.4025,VALID,342,VALID,0.504297,
2011-11-11, 01:21:04,VALID,1003.94,VALID,0,VALID,94.2396,VALID,0,VALID,24.383,VALID,342,VALID,0.435937,
2011-11-11, 01:22:04,VALID,1003.92,VALID,0,VALID,94.3845,VALID,0,VALID,24.383,VALID,342,VALID,0.144922,
2011-11-11, 01:23:04,VALID,1003.96,VALID,0,VALID,94.3921,VALID,0,VALID,24.3617,VALID,342,VALID,0.168359,
2011-11-11, 01:24:04,VALID,1003.95,VALID,0,VALID,94.3692,VALID,0,VALID,24.3617,VALID,342,VALID,0.154687,
2011-11-11, 01:25:04,VALID,1003.96,VALID,0,VALID,94.5981,VALID,0,VALID,24.4238,VALID,342,VALID,0.181641,
2011-11-11, 01:26:04,VALID,1003.96,VALID,0,VALID,94.5142,VALID,0,VALID,24.4238,VALID,342,VALID,0.276172,
2011-11-11, 01:27:04,VALID,1003.93,VALID,0,VALID,94.4455,VALID,0,VALID,24.4025,VALID,342,VALID,0.180078,
2011-11-11, 01:28:04,VALID,1003.92,VALID,0,VALID,94.293,VALID,0,VALID,24.383,VALID,342,VALID,0.333594,
2011-11-11, 01:29:04,VALID,1003.92,VALID,0,VALID,94.3769,VALID,0,VALID,24.3617,VALID,342,VALID,0.433594,
2011-11-11, 01:30:04,VALID,1003.91,VALID,0,VALID,94.3998,VALID,0,VALID,24.3636,VALID,342,VALID,0.431641,
2011-11-11, 01:31:04,VALID,1003.9,VALID,0,VALID,94.3921,VALID,0,VALID,24.3441,VALID,342,VALID,0.55,
2011-11-11, 01:32:04,VALID,1003.87,VALID,0,VALID,94.3464,VALID,0,VALID,24.3033,VALID,342,VALID,0.503516,
2011-11-11, 01:33:04,VALID,1003.87,VALID,0,VALID,94.3158,VALID,0,VALID,24.2857,VALID,342,VALID,0.553906,
2011-11-11, 01:34:04,VALID,1003.91,VALID,0,VALID,94.3158,VALID,0,VALID,24.2662,VALID,342,VALID,0.567578,
2011-11-11, 01:35:04,VALID,1003.89,VALID,0,VALID,94.415,VALID,0,VALID,24.2662,VALID,342,VALID,0.584766,
2011-11-11, 01:36:04,VALID,1003.91,VALID,0,VALID,94.5371,VALID,0.0815089,VALID,24.2468,VALID,342,VALID,0.560547,
2011-11-11, 01:37:04,VALID,1003.89,VALID,0,VALID,94.6363,VALID,0,VALID,24.2662,VALID,342,VALID,0.422656,
2011-11-11, 01:38:04,VALID,1003.91,VALID,0,VALID,94.6897,VALID,0,VALID,24.2662,VALID,342,VALID,0.428125,
2011-11-11, 01:39:04,VALID,1003.91,VALID,0,VALID,94.6668,VALID,0,VALID,24.2662,VALID,342,VALID,0.336328,
2011-11-11, 01:40:04,VALID,1003.88,VALID,0,VALID,94.621,VALID,0,VALID,24.2468,VALID,342,VALID,0.362891,
2011-11-11, 01:41:04,VALID,1003.88,VALID,0,VALID,94.56,VALID,0,VALID,24.206,VALID,342,VALID,0.620703,
2011-11-11, 01:42:04,VALID,1003.89,VALID,0,VALID,94.6363,VALID,0,VALID,24.2078,VALID,342,VALID,0.6625,
2011-11-11, 01:43:04,VALID,1003.87,VALID,0,VALID,94.6897,VALID,0,VALID,24.2273,VALID,343,VALID,0.635547,
2011-11-11, 01:44:04,VALID,1003.87,VALID,0,VALID,94.7202,VALID,0,VALID,24.2078,VALID,343,VALID,0.751172,
2011-11-11, 01:45:04,VALID,1003.86,VALID,0,VALID,94.7125,VALID,0,VALID,24.1865,VALID,343,VALID,0.597266,
2011-11-11, 01:46:04,VALID,1003.85,VALID,0,VALID,94.7507,VALID,0,VALID,24.1671,VALID,342,VALID,0.542188,
2011-11-11, 01:47:04,VALID,1003.86,VALID,0,VALID,94.7507,VALID,0,VALID,24.1884,VALID,342,VALID,0.373047,
2011-11-11, 01:48:04,VALID,1003.91,VALID,0,VALID,94.8422,VALID,0,VALID,24.1689,VALID,342,VALID,0.441797,
2011-11-11, 01:49:04,VALID,1003.91,VALID,0,VALID,94.8728,VALID,0,VALID,24.1884,VALID,343,VALID,0.328125,
2011-11-11, 01:50:04,VALID,1003.9,VALID,0,VALID,94.8117,VALID,0,VALID,24.1884,VALID,342,VALID,0.463281,
2011-11-11, 01:51:04,VALID,1003.95,VALID,0,VALID,94.7965,VALID,0,VALID,24.1902,VALID,342,VALID,0.353125,
2011-11-11, 01:52:04,VALID,1003.96,VALID,0,VALID,94.8956,VALID,0,VALID,24.1689,VALID,342,VALID,0.308594,
2011-11-11, 01:53:04,VALID,1003.99,VALID,0,VALID,94.9262,VALID,0,VALID,24.1689,VALID,342,VALID,0.246484,
2011-11-11, 01:54:04,VALID,1004,VALID,0,VALID,94.949,VALID,0,VALID,24.1671,VALID,342,VALID,0.334375,
2011-11-11, 01:55:04,VALID,1004,VALID,0,VALID,94.9643,VALID,0.0815089,VALID,24.1884,VALID,343,VALID,0.307422,
2011-11-11, 01:56:04,VALID,1004,VALID,0,VALID,95.033,VALID,0,VALID,24.2273,VALID,342,VALID,0.342969,
2011-11-11, 01:57:04,VALID,1004.02,VALID,0,VALID,95.0711,VALID,0,VALID,24.206,VALID,342,VALID,0.490625,
2011-11-11, 01:58:04,VALID,1003.99,VALID,0,VALID,95.1398,VALID,0,VALID,24.2468,VALID,342,VALID,0.486719,
2011-11-11, 01:59:04,VALID,1004,VALID,0,VALID,95.0787,VALID,0,VALID,24.2662,VALID,342,VALID,0.573047,
2011-11-11, 02:00:04,VALID,1003.95,VALID,0,VALID,94.9796,VALID,0,VALID,24.2449,VALID,342,VALID,0.619922,
2011-11-11, 02:01:04,VALID,1003.95,VALID,0,VALID,95.0482,VALID,0,VALID,24.2662,VALID,343,VALID,0.544922,
2011-11-11, 02:02:04,VALID,1003.93,VALID,0,VALID,94.9109,VALID,0,VALID,24.2875,VALID,343,VALID,0.531641,
2011-11-11, 02:03:04,VALID,1003.95,VALID,0,VALID,94.9109,VALID,0,VALID,24.2255,VALID,343,VALID,0.415625,
2011-11-11, 02:04:04,VALID,1003.9,VALID,0,VALID,94.9262,VALID,0,VALID,24.2468,VALID,343,VALID,0.399609,
2011-11-11, 02:05:04,VALID,1003.91,VALID,0,VALID,95.1093,VALID,0,VALID,24.2857,VALID,342,VALID,0.188281,
2011-11-11, 02:06:04,VALID,1003.92,VALID,0,VALID,95.0253,VALID,0.0815089,VALID,24.3246,VALID,343,VALID,0.339844,
2011-11-11, 02:07:04,VALID,1003.85,VALID,0,VALID,94.9338,VALID,0,VALID,24.2839,VALID,343,VALID,0.532422,
2011-11-11, 02:08:04,VALID,1003.85,VALID,0,VALID,94.9643,VALID,0,VALID,24.3052,VALID,343,VALID,0.444531,
2011-11-11, 02:09:04,VALID,1003.83,VALID,0,VALID,95.0024,VALID,0,VALID,24.3033,VALID,343,VALID,0.313281,
2011-11-11, 02:10:04,VALID,1003.82,VALID,0,VALID,95.0101,VALID,0.0815089,VALID,24.3033,VALID,343,VALID,0.348828,
2011-11-11, 02:11:04,VALID,1003.83,VALID,0,VALID,95.0406,VALID,0,VALID,24.3441,VALID,343,VALID,0.323828,
2011-11-11, 02:12:04,VALID,1003.85,VALID,0,VALID,95.0177,VALID,0,VALID,24.3636,VALID,343,VALID,0.237109,
2011-11-11, 02:13:04,VALID,1003.82,VALID,0,VALID,95.0253,VALID,0,VALID,24.3636,VALID,343,VALID,0.208594,
2011-11-11, 02:14:04,VALID,1003.82,VALID,0,VALID,95.0177,VALID,0,VALID,24.3636,VALID,343,VALID,0.00742187,
2011-11-11, 02:15:05,VALID,1003.83,VALID,0,VALID,95.0024,VALID,0,VALID,24.3228,VALID,343,VALID,0.139844,
2011-11-11, 02:16:05,VALID,1003.82,VALID,0,VALID,94.9719,VALID,0,VALID,24.3636,VALID,343,VALID,0.173828,
2011-11-11, 02:17:04,VALID,1003.82,VALID,0,VALID,95.0482,VALID,0,VALID,24.3636,VALID,343,VALID,0.0328125,
2011-11-11, 02:18:05,VALID,1003.83,VALID,0,VALID,95.0787,VALID,0,VALID,24.3617,VALID,342,VALID,0.182422,
2011-11-11, 02:19:05,VALID,1003.83,VALID,0,VALID,95.1016,VALID,0,VALID,24.3812,VALID,343,VALID,0,
2011-11-11, 02:20:05,VALID,1003.79,VALID,0,VALID,95.1093,VALID,0,VALID,24.4025,VALID,342,VALID,0.181641,
2011-11-11, 02:21:05,VALID,1003.78,VALID,0,VALID,95.3152,VALID,0,VALID,24.4609,VALID,343,VALID,0.229297,
2011-11-11, 02:22:05,VALID,1003.78,VALID,0,VALID,95.2542,VALID,0,VALID,24.4998,VALID,343,VALID,0.3,
2011-11-11, 02:23:05,VALID,1003.74,VALID,0,VALID,95.2161,VALID,0,VALID,24.4785,VALID,342,VALID,0.444922,
2011-11-11, 02:24:05,VALID,1003.69,VALID,0,VALID,94.9414,VALID,0,VALID,24.4609,VALID,343,VALID,0.707422,
2011-11-11, 02:25:05,VALID,1003.63,VALID,0,VALID,94.888,VALID,0,VALID,24.4414,VALID,343,VALID,0.579297,
2011-11-11, 02:26:05,VALID,1003.62,VALID,0,VALID,94.9109,VALID,0,VALID,24.422,VALID,344,VALID,0.739453,
2011-11-11, 02:27:05,VALID,1003.58,VALID,0,VALID,94.888,VALID,0.0815089,VALID,24.422,VALID,345,VALID,0.691406,
2011-11-11, 02:28:05,VALID,1003.58,VALID,0,VALID,94.8728,VALID,0,VALID,24.4025,VALID,345,VALID,0.689062,
2011-11-11, 02:29:05,VALID,1003.57,VALID,0,VALID,94.8956,VALID,0.0815089,VALID,24.383,VALID,345,VALID,0.586328,
2011-11-11, 02:30:05,VALID,1003.56,VALID,0,VALID,94.8804,VALID,0,VALID,24.3422,VALID,345,VALID,0.519922,
2011-11-11, 02:31:05,VALID,1003.56,VALID,0,VALID,94.9796,VALID,0,VALID,24.3228,VALID,345,VALID,0.400391,
2011-11-11, 02:32:05,VALID,1003.57,VALID,0,VALID,95.1093,VALID,0,VALID,24.3849,VALID,345,VALID,0.441016,
2011-11-11, 02:33:05,VALID,1003.58,VALID,0,VALID,95.1627,VALID,0.0815089,VALID,24.383,VALID,345,VALID,0.440234,
2011-11-11, 02:34:05,VALID,1003.61,VALID,0,VALID,95.2313,VALID,0,VALID,24.4238,VALID,345,VALID,0.474609,
2011-11-11, 02:35:05,VALID,1003.59,VALID,0,VALID,95.2084,VALID,0,VALID,24.422,VALID,345,VALID,0.391797,
2011-11-11, 02:36:05,VALID,1003.56,VALID,0,VALID,95.2618,VALID,0,VALID,24.4414,VALID,345,VALID,0.420703,
2011-11-11, 02:37:05,VALID,1003.57,VALID,0,VALID,95.3,VALID,0,VALID,24.4609,VALID,345,VALID,0.448047,
2011-11-11, 02:38:05,VALID,1003.52,VALID,0,VALID,95.2695,VALID,0,VALID,24.4609,VALID,345,VALID,0.354688,
2011-11-11, 02:39:05,VALID,1003.5,VALID,0,VALID,95.2008,VALID,0,VALID,24.4609,VALID,345,VALID,0.400781,
2011-11-11, 02:40:05,VALID,1003.52,VALID,0,VALID,95.1779,VALID,0,VALID,24.4201,VALID,345,VALID,0.366406,
2011-11-11, 02:41:05,VALID,1003.54,VALID,0,VALID,95.1627,VALID,0.0815089,VALID,24.4201,VALID,345,VALID,0.333203,
2011-11-11, 02:42:05,VALID,1003.55,VALID,0,VALID,95.1932,VALID,0,VALID,24.4414,VALID,345,VALID,0.272656,
2011-11-11, 02:43:05,VALID,1003.55,VALID,0,VALID,95.2771,VALID,0,VALID,24.4201,VALID,345,VALID,0.199219,
2011-11-11, 02:44:05,VALID,1003.55,VALID,0,VALID,95.4068,VALID,0,VALID,24.4804,VALID,345,VALID,0.310156,
2011-11-11, 02:45:05,VALID,1003.56,VALID,0,VALID,95.3686,VALID,0.0815089,VALID,24.4998,VALID,345,VALID,0.110547,
2011-11-11, 02:46:05,VALID,1003.58,VALID,0,VALID,95.4449,VALID,0,VALID,24.5406,VALID,345,VALID,0.204688,
2011-11-11, 02:47:05,VALID,1003.6,VALID,0,VALID,95.422,VALID,0,VALID,24.5582,VALID,345,VALID,0.187891,
2011-11-11, 02:48:05,VALID,1003.59,VALID,0,VALID,95.3076,VALID,0,VALID,24.5406,VALID,345,VALID,0.287109,
2011-11-11, 02:49:05,VALID,1003.62,VALID,0,VALID,95.0635,VALID,0,VALID,24.5212,VALID,345,VALID,0.374219,
2011-11-11, 02:50:05,VALID,1003.59,VALID,0,VALID,94.9872,VALID,0,VALID,24.4822,VALID,345,VALID,0.355859,
2011-11-11, 02:51:05,VALID,1003.59,VALID,0,VALID,95.0024,VALID,0,VALID,24.4628,VALID,345,VALID,0.555469,
2011-11-11, 02:52:05,VALID,1003.6,VALID,0,VALID,94.9796,VALID,0,VALID,24.4238,VALID,345,VALID,0.480469,
2011-11-11, 02:53:05,VALID,1003.62,VALID,0,VALID,94.9948,VALID,0,VALID,24.4043,VALID,345,VALID,0.390625,
2011-11-11, 02:54:05,VALID,1003.57,VALID,0,VALID,95.1093,VALID,0,VALID,24.4257,VALID,345,VALID,0.214062,
2011-11-11, 02:55:05,VALID,1003.57,VALID,0,VALID,95.0558,VALID,0,VALID,24.3849,VALID,345,VALID,0.298047,
2011-11-11, 02:56:05,VALID,1003.58,VALID,0,VALID,95.0101,VALID,0,VALID,24.3849,VALID,345,VALID,0.315625,
2011-11-11, 02:57:05,VALID,1003.57,VALID,0,VALID,95.1321,VALID,0,VALID,24.3441,VALID,345,VALID,0.428906,
2011-11-11, 02:58:05,VALID,1003.55,VALID,0,VALID,95.155,VALID,0,VALID,24.3636,VALID,345,VALID,0.233594,
2011-11-11, 02:59:05,VALID,1003.48,VALID,0,VALID,95.155,VALID,0,VALID,24.3654,VALID,345,VALID,0.198828,
2011-11-11, 03:00:05,VALID,1003.5,VALID,0,VALID,95.3381,VALID,0,VALID,24.4062,VALID,345,VALID,0.204297,
2011-11-11, 03:01:05,VALID,1003.49,VALID,0,VALID,95.2923,VALID,0,VALID,24.4025,VALID,345,VALID,0.269531,
2011-11-11, 03:02:05,VALID,1003.44,VALID,0,VALID,95.2008,VALID,0,VALID,24.4025,VALID,345,VALID,0.350781,
2011-11-11, 03:03:05,VALID,1003.46,VALID,0,VALID,95.155,VALID,0,VALID,24.383,VALID,345,VALID,0.339063,
2011-11-11, 03:04:05,VALID,1003.4,VALID,0,VALID,95.1093,VALID,0,VALID,24.3636,VALID,345,VALID,0.344922,
2011-11-11, 03:05:05,VALID,1003.39,VALID,0,VALID,95.1245,VALID,0,VALID,24.3636,VALID,345,VALID,0.325,
2011-11-11, 03:06:05,VALID,1003.35,VALID,0,VALID,95.2008,VALID,0.0815089,VALID,24.3636,VALID,345,VALID,0.498828,
2011-11-11, 03:07:05,VALID,1003.34,VALID,0,VALID,95.2161,VALID,0,VALID,24.3441,VALID,345,VALID,0.395312,
2011-11-11, 03:08:05,VALID,1003.32,VALID,0,VALID,95.2923,VALID,0,VALID,24.3636,VALID,345,VALID,0.555469,
2011-11-11, 03:09:05,VALID,1003.33,VALID,0,VALID,95.1627,VALID,0,VALID,24.3246,VALID,345,VALID,0.391406,
2011-11-11, 03:10:05,VALID,1003.3,VALID,0,VALID,95.2237,VALID,0,VALID,24.3246,VALID,345,VALID,0.327344,
2011-11-11, 03:11:05,VALID,1003.33,VALID,0,VALID,95.2695,VALID,0,VALID,24.3654,VALID,345,VALID,0.238672,
2011-11-11, 03:12:05,VALID,1003.31,VALID,0,VALID,95.2847,VALID,0,VALID,24.3459,VALID,345,VALID,0.257813,
2011-11-11, 03:13:05,VALID,1003.34,VALID,0,VALID,95.2542,VALID,0,VALID,24.3246,VALID,345,VALID,0.255859,
2011-11-11, 03:14:05,VALID,1003.36,VALID,0,VALID,95.2466,VALID,0,VALID,24.3246,VALID,345,VALID,0.212891,
2011-11-11, 03:15:05,VALID,1003.41,VALID,0,VALID,95.2313,VALID,0,VALID,24.307,VALID,345,VALID,0.1875,
2011-11-11, 03:16:05,VALID,1003.41,VALID,0,VALID,95.1474,VALID,0,VALID,24.2662,VALID,345,VALID,0.238281,
2011-11-11, 03:17:05,VALID,1003.45,VALID,0,VALID,95.0253,VALID,0,VALID,24.2273,VALID,345,VALID,0.204297,
2011-11-11, 03:18:05,VALID,1003.47,VALID,0,VALID,95.0024,VALID,0,VALID,24.1884,VALID,345,VALID,0.215234,
2011-11-11, 03:19:05,VALID,1003.51,VALID,0,VALID,95.1093,VALID,0,VALID,24.1884,VALID,345,VALID,0,
2011-11-11, 03:20:05,VALID,1003.52,VALID,0,VALID,95.1932,VALID,0,VALID,24.1884,VALID,345,VALID,0,
2011-11-11, 03:21:05,VALID,1003.56,VALID,0,VALID,95.3991,VALID,0,VALID,24.2273,VALID,345,VALID,0,
2011-11-11, 03:22:05,VALID,1003.57,VALID,0,VALID,95.3152,VALID,0,VALID,24.2078,VALID,345,VALID,0,
2011-11-11, 03:23:05,VALID,1003.52,VALID,0,VALID,95.2084,VALID,0,VALID,24.1865,VALID,345,VALID,0,
2011-11-11, 03:24:05,VALID,1003.52,VALID,0,VALID,95.1855,VALID,0,VALID,24.1884,VALID,345,VALID,0,
2011-11-11, 03:25:05,VALID,1003.54,VALID,0,VALID,95.1627,VALID,0,VALID,24.1884,VALID,345,VALID,0,
2011-11-11, 03:26:05,VALID,1003.53,VALID,0,VALID,95.2161,VALID,0,VALID,24.1884,VALID,345,VALID,0.364453,
2011-11-11, 03:27:05,VALID,1003.53,VALID,0,VALID,95.3,VALID,0,VALID,24.2078,VALID,345,VALID,0.322656,
2011-11-11, 03:28:05,VALID,1003.56,VALID,0,VALID,95.4068,VALID,0,VALID,24.2273,VALID,345,VALID,0.332422,
2011-11-11, 03:29:05,VALID,1003.56,VALID,0,VALID,95.3381,VALID,0,VALID,24.2273,VALID,346,VALID,0.362109,
2011-11-11, 03:30:05,VALID,1003.54,VALID,0,VALID,95.2695,VALID,0,VALID,24.2078,VALID,346,VALID,0.363672,
2011-11-11, 03:31:05,VALID,1003.54,VALID,0,VALID,95.3,VALID,0,VALID,24.1865,VALID,346,VALID,0.255078,
2011-11-11, 03:32:05,VALID,1003.52,VALID,0,VALID,95.2923,VALID,0,VALID,24.2078,VALID,346,VALID,0.273047,
2011-11-11, 03:33:05,VALID,1003.55,VALID,0,VALID,95.2389,VALID,0,VALID,24.2097,VALID,346,VALID,0.278516,
2011-11-11, 03:34:05,VALID,1003.51,VALID,0,VALID,95.3,VALID,0,VALID,24.1884,VALID,346,VALID,0,
2011-11-11, 03:35:05,VALID,1003.51,VALID,0,VALID,95.3839,VALID,0,VALID,24.2078,VALID,346,VALID,0.0953125,
2011-11-11, 03:36:05,VALID,1003.48,VALID,0,VALID,95.3763,VALID,0,VALID,24.2273,VALID,346,VALID,0.188281,
2011-11-11, 03:37:05,VALID,1003.5,VALID,0,VALID,95.3457,VALID,0,VALID,24.2078,VALID,346,VALID,0,
2011-11-11, 03:38:05,VALID,1003.49,VALID,0,VALID,95.3229,VALID,0.0815089,VALID,24.1865,VALID,346,VALID,0.230469,
2011-11-11, 03:39:05,VALID,1003.49,VALID,0,VALID,95.2542,VALID,0,VALID,24.1884,VALID,346,VALID,0,
2011-11-11, 03:40:05,VALID,1003.5,VALID,0,VALID,95.2771,VALID,0,VALID,24.1476,VALID,346,VALID,0,
2011-11-11, 03:41:05,VALID,1003.5,VALID,0,VALID,95.3457,VALID,0,VALID,24.1671,VALID,346,VALID,0,
2011-11-11, 03:42:05,VALID,1003.49,VALID,0,VALID,95.3763,VALID,0,VALID,24.1865,VALID,346,VALID,0,
2011-11-11, 03:43:05,VALID,1003.5,VALID,0,VALID,95.4297,VALID,0,VALID,24.2273,VALID,346,VALID,0,